{"data":{"norad_id":64615,"intl_designator":"2025-137X","name":"STARLINK-34469","alt_names":[],"object_type":"PAYLOAD","status":"ACTIVE","operator":null,"country":"US","launch_date":"2025-06-25","launch_site_code":"AFETR","launch_vehicle":null,"mission":null,"orbit_class":"UNKNOWN","rcs_meters":null,"size_class":null,"mass_kg":null,"dimensions":null,"purposes":["comms"],"wikipedia_slug":null,"has_3d_model":false,"image_url":null,"decayed_at":null,"tle_current":{"epoch":"2026-05-24T22:43:41.637216Z","epoch_age_seconds":79386,"freshness":"FRESH","line1":"1 64615U 25137X   26144.94700969  .00018443  00000+0  63328-3 0  9995","line2":"2 64615  53.1611 340.7823 0001197  93.2239 266.8899 15.30200499 52417","mean_motion":15.30200499,"eccentricity":0.0001197,"inclination_deg":53.1611,"raan_deg":340.7823,"arg_perigee_deg":93.2239,"mean_anomaly_deg":266.8899,"bstar":0.00063328,"rev_number":5241,"period_min":94.105315018591,"perigee_km":474.39323343131,"apogee_km":476.03392556004,"semimajor_km":6853.3505794957,"source":"CELESTRAK","updated_at":"2026-05-25T13:38:20.498409Z"}}}